This is the latest recevied weather packets stored in our database for station/object EA5JJP-10. If no packets are shown the sender has not sent any weather packets the latest 10 day(s).
| Time | Temp. | Humidity | Pressure | Rain* | Wind** | Luminosity | Snow |
|---|---|---|---|---|---|---|---|
| 1777291052 | 18.89° C | 39% | 913.8 hPa | - | - | - | - |
| 1777290157 | 20° C | 36% | 913.9 hPa | - | - | - | - |
| 1777289251 | 18.89° C | 38% | 914.2 hPa | - | - | - | - |
| 1777288351 | 20.56° C | 33% | 914.1 hPa | - | - | - | - |
| 1777287451 | 22.22° C | 30% | 914.3 hPa | - | - | - | - |
| 1777286553 | 22.22° C | 29% | 914.4 hPa | - | - | - | - |
| 1777285654 | 21.11° C | 25% | 914.4 hPa | - | - | - | - |
| 1777284757 | 23.89° C | 25% | 914.6 hPa | - | - | - | - |
| 1777283859 | 23.89° C | 24% | 914.6 hPa | - | - | - | - |
| 1777282960 | 24.44° C | 21% | 914.6 hPa | - | - | - | - |
| 1777282062 | 22.22° C | 30% | 914.5 hPa | - | - | - | - |
| 1777281164 | 22.78° C | 34% | 914.5 hPa | - | - | - | - |
| 1777280271 | 20.56° C | 37% | 914.4 hPa | - | - | - | - |
| 1777279366 | 18.33° C | 41% | 914.3 hPa | - | - | - | - |
| 1777278477 | 17.22° C | 50% | 914.2 hPa | - | - | - | - |
| 1777277570 | 16.67° C | 48% | 914.2 hPa | - | - | - | - |
| 1777276670 | 17.22° C | 37% | 914.1 hPa | - | - | - | - |
| 1777275771 | 16.67° C | 49% | 914.2 hPa | - | - | - | - |
| 1777274873 | 15° C | 57% | 914.1 hPa | - | - | - | - |
| 1777273975 | 13.33° C | 49% | 914.1 hPa | - | - | - | - |
| 1777273077 | 13.33° C | 59% | 914.2 hPa | - | - | - | - |
| 1777272339 | 12.78° C | 61% | 914.1 hPa | - | - | - | - |
| 1777272179 | 12.78° C | 61% | 914.1 hPa | - | - | - | - |
| 1777271281 | 12.78° C | 64% | 914 hPa | - | - | - | - |
| 1777270381 | 11.67° C | 65% | 913.8 hPa | - | - | - | - |
* Rain since midnight (hover to see other rain measurements)
** Current wind speed in m/s (hover to see current wind gust speed)